NOAA 16 DEB, 41653

Orbit data source: Space-Track

NOAA 16 DEB, 41653 is space debris in SSO originally from a launch on Thu, 21 Sep 2000 UTC launched from the Air Force Western Test Range (AFWTR). Debris objects in space refer to the collection of defunct objects orbiting the Earth. Examples of debris include non-operational satellites, rocket bodies, and fragments generated from explosions, collisions, or faulty payload assembly.

Loading next visibility...
Identifier
41653, 2000-055NS
Orbit
SSO
Country
Flag of USUS
Related business
Manufacturer
Unknown
Mission
Spacecraft
Bus & Motor
Unknown
Mass
Unknown
Launch date (UTC)
2000-09-21 (26 years ago)
Launch vehicle
Unknown
Launch site
Air Force Western Test Range (AFWTR)
Object type
Payload
Rocket body
Debris
Shape & HBR
Unknown shape, 0.1 m
Radar Cross Section
Medium (>0.1 m² and <1 m²)

Expand to show TLE details & history
Last TLE update: 1 week ago

TLE from 1 week ago
0 NOAA 16 DEB
1 41653U 00055NS  26166.08720503  .00005473  00000-0  16584-2 0  9990
2 41653  98.8714 302.0914 0005018 211.0396 149.0496 14.42675874526939
Epoch: 2026-06-15T02:05Z
TLE epoch observation values (Epoch: 2026-06-15T02:05:34.514Z)
Latitude
-0.00009°
Longitude
7.31898°
Altitude
755.68 km
Speed
7.475 km/s
True Right ascension
20h 08m 21s
True Declination
0° 00' 00"
Sunlit
Object was in full shadow at epoch
Visualization orbit readout
Latitude
Unknown
Longitude
Unknown
Altitude
Unknown
Speed
Unknown
Apparent Right ascension
Unknown
Apparent Declination
Unknown
Sunlit
N/A
Visualization observer readout
Local Sidereal Time
21:41:52
Azimuth
Unknown
Elevation
Unknown
Doppler factor
Unknown
Orbital elements
Apogee altitude
750.383 km
Perigee altitude
743.232 km
Semi-major axis
7,124.944 km
Eccentricity
0.0005
Inclination
98.8714°
RAAN
302.0914°
Arg. of periapsis
211.0396°
True anomaly
149.07916°
Mean anomaly
149.0496°
Eccentric anomaly
149.06438°
Mean motion
3.60887 °/min
Orbital period
99.75 mins
BSTAR
0.0016584
Loading maneuver chart data...
Computing Atmospheric mass density...
Loading historical data...
Loading historical data...
Loading historical data...
Loading historical data...
Loading historical data...
Loading historical data...
Loading historical data...

Documentation

Showing up to 5 results
|